Location: Church Tower
(37.7144°N, 119.6316°W)
Time: 20:37:37
(UTC+00:00)

IRS-1D - Pass Details

Date: 15 November 2025
Orbit: 735 x 812 km, 98.8° (Epoch: 08 December)

Event Time Altitude Azimuth Distance (km) Brightness Sun altitude
Rises 13:55:54 0° 358° (N) 3,180 6.5 -8.9°
Reaches altitude 10° 13:58:36 10° 344° (NNW) 2,248 5.6 -8.3°
Maximum altitude 14:02:23 23° 294° (WNW) 1,546 4.5 -7.6°
Drops below altitude 10° 14:06:09 10° 243° (WSW) 2,238 5.5 -6.9°
Sets 14:08:50 0° 229° (SW) 3,161 6.4 -6.4°
